CDT,Max TemperatureF,Mean TemperatureF,Min TemperatureF,Max Dew PointF,MeanDew PointF,Min DewpointF,Max Humidity, Mean Humidity, Min Humidity, Max Sea Level PressureIn, Mean Sea Level PressureIn, Min Sea Level PressureIn, Max VisibilityMiles, Mean VisibilityMiles, Min VisibilityMiles, Max Wind SpeedMPH, Mean Wind SpeedMPH, Max Gust SpeedMPH,PrecipitationIn, CloudCover, Events, WindDirDegrees
2013-10-1,77,66,54,57,53,44,92,67,43,29.98,29.88,29.85,10,10,10,22,10,26,0.00,0,,211
2013-10-2,73,60,46,50,39,26,92,52,17,30.14,30.06,29.99,10,10,10,10,2,,0.00,0,,112
2013-10-3,72,64,55,65,58,37,100,80,47,29.99,29.91,29.85,10,8,0,30,8,36,1.12,6,Fog-Rain-Thunderstorm,141
2013-10-4,63,60,58,64,61,59,100,100,99,30.04,29.97,29.89,10,5,0,12,4,,0.40,7,Fog-Rain-Thunderstorm,56
2013-10-5,71,65,59,70,64,59,100,98,82,29.97,29.87,29.75,10,5,0,14,7,16,0.10,8,Fog-Rain-Thunderstorm,106
2013-10-6,58,54,45,58,41,32,95,68,41,29.78,29.73,29.68,10,10,10,16,8,21,0.00,6,Rain,228
2013-10-7,63,54,44,48,41,33,100,71,32,30.09,29.90,29.72,10,10,3,15,6,20,0.02,3,Rain,264
2013-10-8,73,58,42,46,42,36,100,62,27,30.16,30.12,30.09,10,10,10,15,5,20,0.00,0,,154
2013-10-9,71,60,49,47,43,36,80,59,28,30.24,30.19,30.14,10,10,10,13,8,17,0.03,0,,149
2013-10-10,71,58,46,53,46,38,100,69,31,30.19,30.13,30.06,10,9,0,12,4,,0.00,0,Fog,119
2013-10-11,72,62,51,54,50,46,95,68,41,30.07,30.02,29.95,10,10,5,18,9,24,0.00,3,,123
2013-10-12,68,58,47,57,46,32,85,62,31,30.17,29.99,29.92,10,10,10,18,11,24,0.00,4,Rain-Thunderstorm,195
2013-10-13,58,48,38,39,33,28,88,59,31,30.42,30.34,30.16,10,10,1,12,4,18,0.00,0,,280
2013-10-14,60,47,35,42,38,34,100,73,40,30.44,30.34,30.15,10,10,7,15,3,20,0.00,1,,87
2013-10-15,58,53,48,58,48,41,100,85,67,30.14,29.89,29.74,10,8,2,18,10,26,0.30,6,Rain,157
2013-10-16,54,50,46,48,45,41,97,85,72,29.93,29.84,29.77,10,9,2,15,9,18,0.00,8,Rain,254
2013-10-17,52,46,39,44,38,31,98,75,45,29.92,29.86,29.81,10,10,10,13,2,17,0.00,5,,239
2013-10-18,48,43,38,42,37,34,94,78,65,29.94,29.87,29.80,10,10,10,15,5,22,0.00,6,,235
2013-10-19,51,42,32,38,34,25,100,81,39,29.91,29.80,29.72,10,10,4,25,5,34,0.00,4,Rain,216
2013-10-20,47,40,32,46,38,32,100,94,66,29.86,29.78,29.70,10,6,0,16,5,18,0.06,6,Fog-Rain,182
2013-10-21,45,37,29,42,27,17,91,66,46,29.93,29.87,29.73,10,10,10,16,10,24,0.00,7,Rain,259
2013-10-22,45,34,25,28,24,21,87,65,40,29.95,29.93,29.90,10,10,10,9,7,,0.00,3,,262
2013-10-23,42,34,28,29,23,15,86,64,34,30.00,29.97,29.93,10,10,10,14,6,20,0.00,6,,286
2013-10-24,43,36,29,25,23,19,75,61,38,30.27,30.14,30.00,10,10,10,14,6,20,0.00,6,,287
2013-10-25,49,37,25,30,23,19,90,58,33,30.34,30.18,29.88,10,10,10,25,8,32,0.00,3,,220
2013-10-26,50,44,39,32,24,20,66,45,33,30.06,29.90,29.76,10,10,10,29,16,36,0.00,6,,270
2013-10-27,52,40,28,29,25,20,86,59,27,30.04,29.98,29.90,10,10,10,18,7,24,0.00,0,,212
2013-10-28,44,39,34,31,27,25,77,63,51,30.43,30.31,30.06,10,10,10,17,10,25,0.00,6,,29
2013-10-29,51,42,33,41,34,24,95,74,56,30.41,30.28,30.14,10,9,4,12,7,,0.00,3,,86
2013-10-30,54,47,41,53,48,41,100,95,83,30.13,30.00,29.76,7,3,0,16,6,20,0.00,8,Fog,125
2013-10-31,61,52,42,61,54,39,100,99,87,29.76,29.43,29.25,10,5,1,20,8,25,0.91,8,Rain,208